Regional Weather Roundup
Issued by NWS

Home | Current Version | Previous Version | Graphics & Text | Print | Product List | Glossary On
Versions: 1 2 3 4 5 6 7 8 9 10 11 12 13 14 15 16 17 18 19 20 21 22 23 24 25 26 27 28 29 30 31 32 33 34 35 36 37 38 39 40 41 42 43 44 45 46 47 48 49 50
000
ASUS45 KBOU 041107
RWRCO

WEATHER ROUNDUP FOR COLORADO
NATIONAL WEATHER SERVICE DENVER/BOULDER CO
400 AM MST WED MAR 04 2015

NOTE: "FAIR" INDICATES FEW OR NO CLOUDS BELOW 12000 FEET WITH NO
SIGNIFICANT WEATHER AND/OR OBSTRUCTIONS TO VISIBILITY.

COZ001>005-013-030-031-041200-
...NORTHWEST COLORADO...

CITY           SKY/WX    TMP DP  RH WIND       PRES   REMARKS
CRAIG            N/A      9   2  73 CALM      29.98R
HAYDEN         MOCLDY    10   3  72 CALM      29.95R
MEEKER         CLOUDY    14   6  70 VRB3      29.96R
MOUNT WERNER   NOT AVBL
STEAMBOAT SPGS PTCLDY    11   4  74 S3        29.93R
WALDEN         PTCLDY     3  -2  78 NW10      29.85R WCI -12
$$

COZ006>008-011-041200-
...WEST CENTRAL VALLEYS...

CITY           SKY/WX    TMP DP  RH WIND       PRES   REMARKS
GRAND JUNCTION FLURRIES  27  25  92 CALM      29.95R
MONTROSE       CLOUDY    28  25  88 NW9       29.93R WCI  19
EAGLE          CLOUDY    19  18  93 CALM      29.94R
RIFLE          CLOUDY    26   9  48 NW9       29.97R WCI  17
DELTA          MOCLDY    30  27  88 W16       29.91R WCI  19
NUCLA          CLOUDY    28  28 100 S3        29.94S
$$

COZ017>023-064>068-041200-
...SOUTHWEST COLORADO...

CITY           SKY/WX    TMP DP  RH WIND       PRES   REMARKS
DURANGO        CLOUDY    19  16  88 CALM      29.87R
CORTEZ         CLOUDY    29  26  89 SE3       29.90S
PAGOSA SPRINGS CLOUDY    23  22  98 CALM      29.86R
TELLURIDE      LGT SNOW  17  16  93 W7        29.85R WCI   8
WOLF CREEK PAS CLOUDY     9   5  85 SW8       29.80R WCI  -4
$$

COZ009-010-012-014-032>034-037-058>063-041200-
...CENTRAL COLORADO...

CITY           SKY/WX    TMP DP  RH WIND       PRES   REMARKS
ASPEN          LGT SNOW  18  14  84 E5        29.84R FOG     WCI  11
BUENA VISTA    CLOUDY    23  14  69 CALM      29.78S
COPPER MTN     NOT AVBL
BERTHOUD PASS  CLOUDY    -4  -9  77 NW21G30   29.66R WCI -28
COTTONWOOD PAS LGT SNOW  19  16  86 SE3       29.75R
GUNNISON       PTCLDY    21  14  73 CALM      29.84S
KREMMLING      CLOUDY    18   3  53 N6        29.90R WCI   9
LEADVILLE      LGT SNOW   8   4  83 N9        29.74S FOG     WCI  -5
SALIDA         PTCLDY    20  18  93 SE8       29.88R WCI  10
SUNLIGHT         N/A    N/A N/A N/A CALM        N/A
WILKERSON PASS LGT SNOW   9   5  85 W6        29.74S WCI  -1
$$

COZ069>075-041200-
...SAN LUIS VALLEY/SANGRE DE CRISTO MOUNTAINS...

CITY           SKY/WX    TMP DP  RH WIND       PRES   REMARKS
ALAMOSA        CLEAR     21  15  78 SW12      29.81S WCI   9
LA VETA PASS   CLEAR     16  12  86 MISG      29.78R
SAGUACHE       CLEAR     21  12  68 NW9       29.83R WCI  11
$$

COZ035-036-038>040-041200-
...NORTHERN COLORADO FRONT RANGE...

CITY           SKY/WX    TMP DP  RH WIND       PRES   REMARKS
DENVER INTL AP LGT SNOW  11   8  88 N8        30.03R FOG     WCI  -1
DMNS CITY PARK   N/A     11   9  90 NE7       30.05R WCI   1
AURORA         LGT SNOW  10   8  91 N10       30.03R FOG     WCI  -4
FRONT RANGE AP LGT SNOW  14  12  92 CALM      30.03R
ERIE MUNI ARPT LGT SNOW  13  10  89 CALM      30.06R
BOULDER MUN AP LGT SNOW  12  10  92 CALM      30.04R VSB 3/4
CENTENNIAL     LGT SNOW  10   8  92 NE10      29.99R FOG     WCI  -4
BROOMFIELD     LGT SNOW  12  10  92 N6        30.02R WCI   3
FORT COLLINS   PTCLDY    12   9  85 NE5       30.07R WCI   4
LONGMONT       LGT SNOW  15  11  83 CALM      30.08R
$$

COZ041-046-047-076>085-087-088-041200-
...PIKES PEAK/PALMER DIVIDE AND SOUTHERN FOOTHILLS...

CITY           SKY/WX    TMP DP  RH WIND       PRES   REMARKS
COLO. SPRINGS  LGT SNOW  18  14  84 NE9       29.93R FOG     WCI   7
A. F. ACADEMY  LGT SNOW  12   7  79 N18       29.91R WCI  -5
ELLICOTT       NOT AVBL
FALCON         LGT SNOW  13  11  91 N8        29.90R WCI   2
FORT CARSON    LGT SNOW  20  18  95 NE6       29.92R VSB 3/4 WCI  12
LIMON          LGT SNOW  12   9  87 NE15      29.99R FOG     WCI  -4
MONUMENT HILL  LGT SNOW   7   3  85 NE9       29.89R WCI  -7
TRINIDAD       FRZ RAIN  26  23  88 N14       29.89R FOG     WCI  14
$$

COZ042>045-048>051-090-091-041200-
...NORTHEAST COLORADO...

CITY           SKY/WX    TMP DP  RH WIND       PRES   REMARKS
GREELEY ARPT   MOCLDY    12   5  73 NE5       30.07R WCI   4
AKRON          LGT SNOW  12  10  92 N8        30.06R FOG     WCI   0
BURLINGTON     LGT SNOW  15  11  83 NE9       30.06R FOG     WCI   3
WRAY           LGT SNOW  17  15  90 N5        30.12R WCI  10
STERLING       CLOUDY    16  12  86 N5        30.10R WCI   9
HOLYOKE        NOT AVBL
FORT MORGAN    LGT SNOW  13  10  86 NE7       30.09R WCI   3
$$

COZ086-089-092>099-041200-
...SOUTHEAST COLORADO...

CITY           SKY/WX    TMP DP  RH WIND       PRES   REMARKS
PUEBLO         LGT SNOW  24  22  91 E12       29.97R FOG     WCI  13
LA JUNTA       CLOUDY    25  22  88 E16       30.00R FOG     WCI  12
LAMAR          CLOUDY    21  13  71 E20       30.04R WCI   6
SPRINGFIELD      N/A     20  18  92 NE14      29.98R WCI   7
$$


USA.gov is the U.S. government's official web portal to all federal, state and local government web resources and services.